Simultaneous Nadir Overpasses (SNOs) Predictions

Prediction of SNOs between FY3D and AQUA Satellite Orbit:

Table of predicted SNOs for the next 14.0 days since TLE Epoch: 8/24/2024
Index Date (FY3D) Time (FY3D) Lat,Lon (FY3D) SZA (FY3D ) Date (AQUA) Time (AQUA) Lat,Lon (AQUA) SZA (AQUA ) Distance(km) Time Diff (sec)
1 08/25/2024 16:30:25 79.49, -85.53 69.58 08/25/2024 16:30:47 79.49, -85.52 69.57 0.54 22
2 08/25/2024 17:21:01 -79.22, 84.05 110.80 08/25/2024 17:20:01 -79.23, 83.91 110.77 3.14 60
3 08/28/2024 03:43:16 79.63, 105.06 70.64 08/28/2024 03:44:19 79.62, 105.20 70.60 2.95 63
4 08/28/2024 04:33:52 -79.36, -85.26 109.75 08/28/2024 04:33:33 -79.37, -85.32 109.74 1.31 19
5 08/30/2024 15:46:44 -79.54, 105.04 108.62 08/30/2024 15:47:04 -79.53, 105.17 108.64 2.64 20
6 08/30/2024 16:37:22 79.29, -85.50 71.03 08/30/2024 16:36:19 79.29, -85.45 71.04 1.07 63
7 09/02/2024 02:59:33 -79.63, -63.93 107.61 09/02/2024 03:00:31 -79.63, -63.82 107.63 2.30 58
8 09/02/2024 03:50:11 79.39, 105.53 72.06 09/02/2024 03:49:46 79.39, 105.57 72.05 0.95 25
9 09/04/2024 15:03:01 79.53, -63.82 73.15 09/04/2024 15:03:12 79.52, -63.68 73.13 2.99 11
10 09/04/2024 15:53:35 -79.18, 106.41 107.34 09/04/2024 15:52:24 -79.19, 106.28 107.31 2.86 71
11 09/07/2024 02:15:48 79.58, 127.57 74.13 09/07/2024 02:16:34 79.58, 127.61 74.11 0.73 46



Historial Predications of SNOs between FY3D and AQUA
